Charlotte, MI

9:15 AM EDT on October 20, 2017 (GMT -0400)
Charlotte

Weather History for KFPK - December, 2012

Change the Weather History Date:

Thursday, December 27, 2012

  Actual Average (KLAN) Record (KLAN)
Temperature  
Mean Temperature 24 °F -  
Max Temperature 31 °F 30 °F 60 °F (2008)
Min Temperature 16 °F 14 °F -10 °F (1894)
Degree Days  
Heating Degree Days 42    
Moisture  
Dew Point 20 °F    
Average Humidity 85    
Maximum Humidity 97    
Minimum Humidity 65    
Precipitation  
Precipitation 0.00 in - - ()
Sea Level Pressure  
Sea Level Pressure 30.06 in    
Wind  
Wind Speed 7 mph (NW)    
Max Wind Speed 10 mph    
Max Gust Speed 18 mph    
Visibility 9 miles    
Events Snow    
Averages and records for this station are not official NWS values.
T = Trace of Precipitation, MM = Missing Value Source: NWS Daily Summary

Daily Weather History Graph

Daily Weather History Graph

Search for Another Location

Airport or City:

Trip Planner

Search our weather history database for the weather conditions in past years. The results will help you decide how hot, cold, wet, or windy it might be!

Date:

Astronomy

Dec. 27, 2012 Rise Set
Actual Time 8:08 AM EST 5:13 PM EST
Civil Twilight 7:36 AM EST 5:45 PM EST
Nautical Twilight 7:00 AM EST 6:20 PM EST
Astronomical Twilight 6:26 AM EST 6:54 PM EST
Moon 4:56 PM EST (12/27) 7:18 AM EST (12/27)
Length of Visible Light 10h 08m
Length of Day
9h 04m
Full, 100% of the Moon is Illuminated
Dec 27
Full
Dec 28
Full
Jan 4
Last Quarter
Jan 11
New
Jan 18
First Quarter

Hourly Weather History & Observations

Time (EST) Temp. Windchill Dew Point Humidity Pressure Visibility Wind Dir Wind Speed Gust Speed Precip Events Conditions
12:15 AM 24.3 °F 13.9 °F 21.7 °F 90% 29.93 in 5.0 mi NNW 10.4 mph 18.4 mph N/A Snow Light Snow
12:35 AM 23.9 °F 14.2 °F 21.7 °F 91% 29.93 in 10.0 mi North 9.2 mph 17.3 mph N/A   Overcast
12:55 AM 23.9 °F 14.2 °F 21.6 °F 91% 29.93 in 10.0 mi NNW 9.2 mph - N/A   Overcast
1:15 AM 24.3 °F 14.6 °F 21.9 °F 91% 29.93 in 10.0 mi NNW 9.2 mph 17.3 mph N/A Snow Light Snow
1:35 AM 24.3 °F 13.9 °F 21.9 °F 91% 29.94 in 10.0 mi NNW 10.4 mph - N/A Snow Light Snow
1:55 AM 24.6 °F 14.4 °F 22.1 °F 90% 29.95 in 10.0 mi NNW 10.4 mph 17.3 mph N/A   Overcast
2:15 AM 24.8 °F 14.6 °F 22.5 °F 91% 29.95 in 10.0 mi NNW 10.4 mph 18.4 mph N/A   Overcast
2:35 AM 25.0 °F 14.8 °F 22.3 °F 89% 29.96 in 10.0 mi NNW 10.4 mph 16.1 mph N/A   Overcast
2:55 AM 24.8 °F 15.3 °F 22.1 °F 89% 29.97 in 10.0 mi NNW 9.2 mph 17.3 mph N/A   Overcast
3:15 AM 25.3 °F 17.6 °F 22.6 °F 89% 29.98 in 7.0 mi NW 6.9 mph - N/A Snow Light Snow
3:35 AM 25.2 °F 15.7 °F 22.5 °F 89% 29.98 in 7.0 mi NW 9.2 mph - N/A Snow Light Snow
3:55 AM 24.8 °F 15.3 °F 22.1 °F 89% 29.98 in 7.0 mi NW 9.2 mph - N/A Snow Light Snow
4:15 AM 24.3 °F 14.6 °F 21.7 °F 90% 29.99 in 5.0 mi NW 9.2 mph - N/A Snow Light Snow
4:55 AM 23.0 °F 12.4 °F 20.8 °F 91% 30.00 in 10.0 mi NW 10.4 mph 16.1 mph N/A Snow Light Snow
5:15 AM 23.0 °F 13.1 °F 20.8 °F 91% 30.01 in 10.0 mi NW 9.2 mph - N/A   Overcast
5:35 AM 23.0 °F 12.4 °F 20.8 °F 91% 30.01 in 10.0 mi NW 10.4 mph - N/A   Overcast
5:55 AM 23.2 °F 16.0 °F 20.8 °F 91% 30.03 in 10.0 mi NW 5.8 mph - N/A   Overcast
6:15 AM 23.0 °F 14.7 °F 20.7 °F 91% 30.03 in 10.0 mi NW 6.9 mph - N/A   Overcast
6:35 AM 23.0 °F 14.7 °F 20.3 °F 89% 30.04 in 10.0 mi NW 6.9 mph - N/A   Overcast
6:55 AM 23.0 °F 14.7 °F 20.5 °F 90% 30.04 in 10.0 mi NNW 6.9 mph - N/A   Overcast
7:15 AM 22.5 °F 14.1 °F 20.1 °F 91% 30.04 in 10.0 mi North 6.9 mph - N/A   Overcast
7:35 AM 22.6 °F 14.3 °F 20.3 °F 91% 30.06 in 7.0 mi NW 6.9 mph - N/A Snow Light Snow
7:55 AM 23.4 °F 15.2 °F 21.0 °F 91% 30.06 in 3.0 mi NNW 6.9 mph - N/A Snow Light Snow
8:15 AM 23.0 °F 17.0 °F 20.8 °F 91% 30.06 in 5.0 mi NW 4.6 mph - N/A Snow Light Snow
8:35 AM 23.0 °F 17.0 °F 20.8 °F 91% 30.06 in 5.0 mi NNW 4.6 mph - N/A Snow Light Snow
8:55 AM 23.4 °F 17.4 °F 21.0 °F 91% 30.06 in 5.0 mi NNW 4.6 mph - N/A Snow Light Snow
9:15 AM 23.5 °F 19.1 °F 21.2 °F 91% 30.07 in 10.0 mi NW 3.5 mph - N/A Snow Light Snow
9:35 AM 23.9 °F 18.0 °F 21.2 °F 89% 30.09 in 10.0 mi WNW 4.6 mph - N/A   Overcast
9:55 AM 25.2 °F 20.9 °F 22.1 °F 88% 30.09 in 10.0 mi WNW 3.5 mph - N/A   Overcast
10:15 AM 25.3 °F 18.5 °F 21.7 °F 86% 30.09 in 10.0 mi NW 5.8 mph - N/A   Mostly Cloudy
10:35 AM 26.4 °F 20.9 °F 21.9 °F 83% 30.09 in 10.0 mi North 4.6 mph - N/A   Overcast
10:55 AM 26.8 °F 21.4 °F 22.1 °F 83% 30.10 in 10.0 mi WNW 4.6 mph - N/A   Overcast
11:35 AM 27.5 °F 22.2 °F 21.7 °F 79% 30.09 in 10.0 mi NNW 4.6 mph - N/A   Scattered Clouds
11:55 AM 28.8 °F 23.7 °F 22.3 °F 77% 30.09 in 10.0 mi WNW 4.6 mph - N/A   Clear
12:15 PM 28.8 °F 22.6 °F 21.4 °F 74% 30.08 in 10.0 mi NW 5.8 mph - N/A   Clear
12:35 PM 28.4 °F 22.2 °F 21.2 °F 74% 30.08 in 10.0 mi NW 5.8 mph - N/A   Clear
12:55 PM 28.9 °F 21.9 °F 21.0 °F 72% 30.07 in 10.0 mi NW 6.9 mph - N/A   Clear
1:15 PM 29.5 °F 22.5 °F 21.0 °F 71% 30.07 in 10.0 mi NNW 6.9 mph - N/A   Clear
1:35 PM 30.0 °F 24.1 °F 20.5 °F 68% 30.07 in 10.0 mi NW 5.8 mph - N/A   Clear
1:55 PM 31.1 °F 23.7 °F 21.2 °F 67% 30.06 in 10.0 mi WNW 8.1 mph - N/A   Clear
2:15 PM 31.1 °F 24.5 °F 20.7 °F 65% 30.06 in 10.0 mi WNW 6.9 mph - N/A   Clear
2:35 PM 31.1 °F 26.4 °F 20.8 °F 66% 30.07 in 10.0 mi NW 4.6 mph - N/A   Clear
2:55 PM 30.6 °F 24.7 °F 20.7 °F 67% 30.07 in 10.0 mi NNW 5.8 mph - N/A   Clear
3:15 PM 30.6 °F 25.8 °F 20.7 °F 67% 30.07 in 10.0 mi WNW 4.6 mph - N/A   Clear
3:35 PM 30.2 °F 25.4 °F 20.7 °F 68% 30.07 in 10.0 mi NW 4.6 mph - N/A   Clear
3:55 PM 30.6 °F 25.8 °F 20.8 °F 67% 30.08 in 10.0 mi NW 4.6 mph - N/A   Clear
4:15 PM 30.9 °F 27.5 °F 21.0 °F 67% 30.09 in 10.0 mi WNW 3.5 mph - N/A   Clear
4:35 PM 30.6 °F 25.8 °F 20.7 °F 67% 30.09 in 10.0 mi West 4.6 mph - N/A   Clear
4:55 PM 29.1 °F 25.4 °F 19.9 °F 69% 30.09 in 10.0 mi NW 3.5 mph - N/A   Clear
5:15 PM 28.0 °F - 20.1 °F 72% 30.08 in 10.0 mi Calm Calm - N/A   Clear
5:35 PM 27.3 °F - 19.9 °F 74% 30.09 in 10.0 mi Calm Calm - N/A   Clear
5:55 PM 24.6 °F - 19.2 °F 80% 30.09 in 10.0 mi Calm Calm - N/A   Clear
6:15 PM 24.3 °F - 19.0 °F 80% 30.10 in 10.0 mi Calm Calm - N/A   Clear
6:35 PM 25.2 °F - 20.7 °F 83% 30.10 in 10.0 mi Calm Calm - N/A   Clear
6:55 PM 22.8 °F - 19.6 °F 87% 30.11 in 10.0 mi Calm Calm - N/A   Clear
7:35 PM 21.9 °F - 19.4 °F 90% 30.12 in 10.0 mi Calm Calm - N/A   Clear
7:55 PM 21.0 °F - 18.9 °F 91% 30.13 in 10.0 mi Calm Calm - N/A   Clear
8:15 PM 20.1 °F - 18.1 °F 92% 30.13 in 10.0 mi Calm Calm - N/A   Clear
8:35 PM 20.5 °F - 18.9 °F 93% 30.13 in 10.0 mi Calm Calm - N/A   Clear
8:55 PM 21.0 °F - 19.0 °F 92% 30.13 in 10.0 mi Calm Calm - N/A   Clear
9:15 PM 17.6 °F - 16.2 °F 94% 30.12 in 10.0 mi Calm Calm - N/A   Clear
9:35 PM 17.6 °F - 16.3 °F 95% 30.11 in 10.0 mi Calm Calm - N/A   Clear
10:15 PM 18.0 °F - 16.9 °F 96% 30.11 in 10.0 mi Calm Calm - N/A   Clear
10:35 PM 18.1 °F - 17.1 °F 96% 30.10 in 10.0 mi Calm Calm - N/A   Clear
10:55 PM 17.6 °F - 16.5 °F 96% 30.10 in 7.0 mi Calm Calm - N/A   Clear
11:15 PM 16.7 °F - 15.8 °F 96% 30.11 in 7.0 mi Calm Calm - N/A   Clear
11:35 PM 18.0 °F - 17.2 °F 97% 30.11 in 7.0 mi Calm Calm - N/A   Clear
11:55 PM 16.3 °F - 15.6 °F 97% 30.11 in 5.0 mi Calm Calm - N/A   Clear